Location: Cave
(41.8160°N, 12.9350°E)
Time: 16:45:50
(UTC+02:00)

ISS - Pass Details

Date: 11 July 2019
Orbit: 409 x 418 km, 51.6° (Epoch: 16 July)

Event Time Altitude Azimuth Distance (km) Brightness Sun altitude
Exits shadow 02:27:24 23° 321° (NW) 937 -1.7 -23.8°
Maximum altitude 02:28:02 24° 340° (NNW) 898 -1.6 -23.7°
Drops below altitude 10° 02:30:48 10° 37° (NE) 1,480 0.0 -23.6°
Sets 02:33:09 0° 52° (NE) 2,342 1.0 -23.4°
